Weather History for Camdenton, MO

Change the Weather History Date:

Thursday, January 31, 2013

  Actual Average (KAIZ) Record (KAIZ)
Temperature  
Mean Temperature 22 °F -  
Max Temperature 33 °F 41 °F 62 °F (1997)
Min Temperature 12 °F 24 °F 3 °F (2007)
Degree Days  
Heating Degree Days 42    
Moisture  
Dew Point 17 °F    
Average Humidity 71    
Maximum Humidity 93    
Minimum Humidity 46    
Precipitation  
Precipitation 0.00 in - - ()
Sea Level Pressure  
Sea Level Pressure 30.12 in    
Wind  
Wind Speed 10 mph (West)    
Max Wind Speed 22 mph    
Max Gust Speed 30 mph    
Visibility 9 miles    
Events Snow    
Averages and records for this station are not official NWS values.
T = Trace of Precipitation, MM = Missing Value Source: NWS Daily Summary

Daily Weather History Graph

Daily Weather History Graph

Search for Another Location

Airport:

Trip Planner

Search our weather history database for the weather conditions in past years. The results will help you decide how hot, cold, wet, or windy it might be!

Date:

Astronomy

Jan. 31, 2013 Rise Set
Actual Time 7:15 AM CST 5:33 PM CST
Civil Twilight 6:48 AM CST 6:01 PM CST
Nautical Twilight 6:16 AM CST 6:32 PM CST
Astronomical Twilight 5:45 AM CST 7:03 PM CST
Moon 10:29 PM CST (1/31) 9:21 AM CST (1/31)
Length of Visible Light 11h 13m
Length of Day
10h 17m
Waning Gibbous, 79% of the Moon is Illuminated
Jan 31
Waning Gibbous
Feb 3
Last Quarter
Feb 10
New
Feb 17
First Quarter
Feb 25
Full

Hourly Weather History & Observations

Time (CST) Temp. Windchill Dew Point Humidity Pressure Visibility Wind Dir Wind Speed Gust Speed Precip Events Conditions
12:15 AM 26.6 °F 18.2 °F 19.4 °F 74% 29.97 in 2.5 mi SW 8.1 mph - N/A   Haze
12:35 AM 26.6 °F 16.8 °F 21.2 °F 80% 29.99 in 10.0 mi WSW 10.4 mph - N/A   Overcast
12:55 AM 26.6 °F 15.7 °F 21.2 °F 80% 29.99 in 10.0 mi WSW 12.7 mph 19.6 mph N/A   Overcast
1:15 AM 26.6 °F 15.2 °F 17.6 °F 69% 29.97 in 10.0 mi WSW 13.8 mph 20.7 mph N/A   Overcast
1:35 AM 26.6 °F 15.7 °F 17.6 °F 69% 29.97 in 10.0 mi WSW 12.7 mph 19.6 mph N/A   Overcast
1:55 AM 26.6 °F 16.8 °F 17.6 °F 69% 29.98 in 10.0 mi WSW 10.4 mph - N/A   Overcast
2:15 AM 26.6 °F 17.5 °F 17.6 °F 69% 29.98 in 10.0 mi West 9.2 mph - N/A   Scattered Clouds
2:35 AM 26.6 °F 19.1 °F 19.4 °F 74% 29.99 in 10.0 mi West 6.9 mph - N/A   Clear
2:55 AM 26.6 °F 22.6 °F 19.4 °F 74% 29.98 in 10.0 mi WSW 3.5 mph - N/A   Clear
3:15 AM 26.6 °F 22.6 °F 19.4 °F 74% 29.97 in 10.0 mi West 3.5 mph - N/A   Clear
3:35 AM 24.8 °F 19.1 °F 19.4 °F 80% 29.97 in 10.0 mi West 4.6 mph - N/A   Clear
3:55 AM 24.8 °F 19.1 °F 19.4 °F 80% 29.97 in 10.0 mi West 4.6 mph - N/A   Scattered Clouds
4:15 AM 24.8 °F 17.9 °F 19.4 °F 80% 29.97 in 10.0 mi WSW 5.8 mph - N/A   Mostly Cloudy
4:35 AM 24.8 °F 17.9 °F 19.4 °F 80% 29.97 in 10.0 mi SW 5.8 mph - N/A   Overcast
4:55 AM 26.6 °F 20.0 °F 19.4 °F 74% 29.97 in 10.0 mi SW 5.8 mph - N/A   Overcast
5:15 AM 26.6 °F 21.2 °F 19.4 °F 74% 29.97 in 10.0 mi SW 4.6 mph - N/A   Overcast
5:35 AM 26.6 °F 20.0 °F 21.2 °F 80% 29.95 in 10.0 mi SW 5.8 mph - N/A   Overcast
5:55 AM 26.6 °F 21.2 °F 21.2 °F 80% 29.96 in 10.0 mi SW 4.6 mph - N/A   Overcast
6:15 AM 26.6 °F 20.0 °F 21.2 °F 80% 29.97 in 10.0 mi SW 5.8 mph - N/A   Overcast
6:35 AM 26.6 °F 21.2 °F 21.2 °F 80% 29.97 in 10.0 mi WSW 4.6 mph - N/A   Overcast
6:55 AM 26.6 °F 20.0 °F 21.2 °F 80% 29.98 in 10.0 mi SW 5.8 mph - N/A   Mostly Cloudy
7:15 AM 24.8 °F 17.9 °F 21.2 °F 86% 29.99 in 10.0 mi SW 5.8 mph - N/A   Scattered Clouds
7:35 AM 24.8 °F - 21.2 °F 86% 29.99 in 10.0 mi Calm Calm - N/A   Clear
7:55 AM 26.6 °F 22.6 °F 23.0 °F 86% 30.01 in 10.0 mi WSW 3.5 mph - N/A   Clear
8:15 AM 26.6 °F 21.2 °F 21.2 °F 80% 30.01 in 10.0 mi SW 4.6 mph - N/A   Clear
8:35 AM 26.6 °F 21.2 °F 21.2 °F 80% 30.04 in 10.0 mi West 4.6 mph - N/A   Clear
8:55 AM 28.4 °F 22.2 °F 21.2 °F 74% 30.04 in 10.0 mi West 5.8 mph - N/A   Clear
9:15 AM 30.2 °F 24.3 °F 21.2 °F 69% 30.04 in 10.0 mi WSW 5.8 mph - N/A   Scattered Clouds
9:35 AM 30.2 °F 23.4 °F 21.2 °F 69% 30.05 in 10.0 mi WSW 6.9 mph - N/A   Scattered Clouds
9:55 AM 32.0 °F 25.6 °F 21.2 °F 64% 30.05 in 10.0 mi WSW 6.9 mph - N/A   Clear
10:15 AM 32.0 °F 24.8 °F 23.0 °F 69% 30.06 in 10.0 mi WSW 8.1 mph - N/A   Scattered Clouds
10:35 AM 32.0 °F 24.2 °F 23.0 °F 69% 30.06 in 10.0 mi West 9.2 mph - N/A   Scattered Clouds
10:55 AM 32.0 °F 24.8 °F 23.0 °F 69% 30.06 in 10.0 mi West 8.1 mph - N/A   Clear
11:15 AM 32.0 °F 24.8 °F 23.0 °F 69% 30.06 in 10.0 mi WSW 8.1 mph - N/A   Scattered Clouds
11:35 AM 32.0 °F 24.2 °F 23.0 °F 69% 30.07 in 10.0 mi West 9.2 mph - N/A   Overcast
11:55 AM 33.8 °F 24.3 °F 23.0 °F 65% 30.06 in 10.0 mi West 13.8 mph 18.4 mph N/A   Mostly Cloudy
12:15 PM 33.8 °F 22.8 °F 23.0 °F 65% 30.07 in 10.0 mi West 18.4 mph 21.9 mph N/A   Mostly Cloudy
12:35 PM 32.0 °F 21.6 °F 24.8 °F 75% 30.09 in 1.5 mi West 15.0 mph 23.0 mph N/A Snow Light Snow
12:55 PM 32.0 °F 21.6 °F 23.0 °F 69% 30.10 in 7.0 mi West 15.0 mph 23.0 mph N/A Snow Light Snow
1:15 PM 30.2 °F 18.9 °F 26.6 °F 86% 30.11 in 3.0 mi West 16.1 mph 21.9 mph N/A Snow Light Snow
1:35 PM 28.4 °F 16.2 °F 24.8 °F 86% 30.12 in 2.0 mi WNW 17.3 mph 23.0 mph N/A Snow Light Snow
1:55 PM 28.4 °F 16.2 °F 26.6 °F 93% 30.14 in 2.0 mi WNW 17.3 mph 24.2 mph N/A Snow Light Snow
2:15 PM 28.4 °F 16.6 °F 23.0 °F 80% 30.15 in 3.0 mi West 16.1 mph 25.3 mph N/A Snow Light Snow
2:35 PM 26.6 °F 13.8 °F 21.2 °F 80% 30.15 in 0.8 mi West 17.3 mph - N/A Snow Light Snow
3:15 PM 28.4 °F 17.5 °F 19.4 °F 69% 30.17 in 10.0 mi West 13.8 mph 21.9 mph N/A   Overcast
3:35 PM 26.6 °F 12.4 °F 12.2 °F 55% 30.19 in 10.0 mi WNW 21.9 mph 29.9 mph N/A   Overcast
4:55 PM 23.0 °F 8.0 °F 5.0 °F 46% 30.22 in 10.0 mi WNW 20.7 mph 29.9 mph N/A   Clear
5:15 PM 23.0 °F 9.6 °F 5.0 °F 46% 30.23 in 10.0 mi WNW 16.1 mph 21.9 mph N/A   Clear
6:15 PM 21.2 °F 8.9 °F 8.6 °F 58% 30.26 in 10.0 mi WNW 12.7 mph 18.4 mph N/A   Clear
6:35 PM 21.2 °F 7.3 °F 6.8 °F 54% 30.28 in 10.0 mi WNW 16.1 mph 21.9 mph N/A   Clear
6:55 PM 21.2 °F 7.8 °F 8.6 °F 58% 30.29 in 10.0 mi WNW 15.0 mph 23.0 mph N/A   Clear
7:15 PM 19.4 °F 4.5 °F 5.0 °F 54% 30.31 in 10.0 mi WNW 17.3 mph 25.3 mph N/A   Clear
7:35 PM 19.4 °F 4.5 °F 8.6 °F 63% 30.32 in 10.0 mi WNW 17.3 mph 20.7 mph N/A   Clear
7:55 PM 17.6 °F 2.2 °F 3.2 °F 53% 30.34 in 10.0 mi WNW 17.3 mph 26.5 mph N/A   Clear
8:15 PM 15.8 °F 1.4 °F 5.0 °F 62% 30.35 in 10.0 mi WNW 13.8 mph 20.7 mph N/A   Clear
8:35 PM 15.8 °F 1.4 °F 5.0 °F 62% 30.36 in 10.0 mi WNW 13.8 mph 18.4 mph N/A   Clear
8:55 PM 14.0 °F 2.0 °F 5.0 °F 67% 30.37 in 10.0 mi West 9.2 mph - N/A   Clear
9:15 PM 14.0 °F 1.2 °F 5.0 °F 67% 30.39 in 10.0 mi WNW 10.4 mph - N/A   Clear
9:35 PM 14.0 °F 0.5 °F 5.0 °F 67% 30.39 in 10.0 mi WNW 11.5 mph 16.1 mph N/A   Scattered Clouds
10:15 PM 14.0 °F 2.0 °F 3.2 °F 62% 30.42 in 10.0 mi West 9.2 mph - N/A   Clear
10:35 PM 14.0 °F -0.2 °F 3.2 °F 62% 30.42 in 10.0 mi West 12.7 mph 17.3 mph N/A   Clear
10:55 PM 14.0 °F 1.2 °F 3.2 °F 62% 30.43 in 10.0 mi WNW 10.4 mph - N/A   Clear
11:15 PM 12.2 °F -2.5 °F 1.4 °F 62% 30.43 in 10.0 mi WNW 12.7 mph 17.3 mph N/A   Clear
11:35 PM 12.2 °F -1.0 °F 1.4 °F 62% 30.43 in 10.0 mi WNW 10.4 mph - N/A   Clear